Volver al catálogo

FENGYUN 1C DEB

ActivoSSO
NORAD 31716·DEBRIS·🇨🇳 China

Lanzado May 10, 1999 desde Taiyuan Satellite Launch Center

Loading…

Próximos Pases (próximas 24 horas)

TLE

ActualizadoSource: Space-Track

Época: Sep 14, 2026, 15:52 UTC

1 31716U 99025CDP 26257.66171422  .00001256  00000-0  74983-3 0  9992
2 31716  98.5390 145.5258 0130970  34.0651 355.7660 14.04699227979925

Sigue FENGYUN 1C DEB en tiempo real con AllMySat

Download on the App Store